Location: Mentone
(34.5413°N, 85.5351°W)
Time: 11:14:14
(UTC-05:00)

AO-Echo - Visible Passes

Search period start: 30 March 2015 00:00
Search period end: 09 April 2015 00:00
Orbit: 694 x 812 km, 98.3° (Epoch: 29 March)

Date Brightness Start Highest point End Pass type
(mag) Time Alt. Az. Time Alt. Az. Time Alt. Az.
02 Apr ? 03:03:48 10° N 03:03:59 11° N 03:03:59 11° N visible
04 Apr ? 03:22:20 10° N 03:22:36 11° N 03:22:36 11° N visible
05 Apr ? 02:41:37 10° N 02:41:56 12° N 02:41:56 12° N visible
06 Apr ? 03:41:07 10° NNW 03:41:12 10° NNW 03:41:12 10° NNW visible
07 Apr ? 02:59:56 10° N 03:00:32 13° N 03:00:32 13° N visible
08 Apr ? 02:19:38 10° NNE 02:19:51 11° NNE 02:19:51 11° NNE visible
